Wind_Speed
32 32 33 37 42 48 50 49 49 48 46 45 45 43 41 39 37 36 35 35 34 34 33 33 33 32 33 35 36 37 38 38 38 38 38 38 38 37 36 34 33 31 30 28 27 25 23 21 20 19 18 17 15 14 14 12 11 9 9 9 8 6 6 6 6 6 5 4 4 3 2 2 2 1 1 0 2 3 4 5 5 5 4 3 3 2 2 2
34 33 34 36 39 44 48 48 49 48 47 46 46 43 40 39 38 37 36 36 35 34 34 33 33 32 33 34 35 36 37 38 38 38 38 38 37 37 36 35 34 32 31 29 28 26 24 23 21 20 19 18 17 16 15 14 13 12 12 11 9 7 6 8 9 7 5 4 4 3 2 1 1 1 2 1 1 2 4 4 5 5 5 4 3 3 2 2
36 36 35 36 38 42 46 48 48 48 47 47 46 42 40 40 39 38 37 36 35 34 34 34 33 33 32 33 33 34 35 36 37 37 37 37 37 37 36 35 34 33 32 30 29 27 26 24 23 22 21 19 18 18 16 16 15 14 14 13 9 7 7 10 10 7 6 6 5 4 3 2 1 1 2 2 1 1 3 4 4 5 5 5 4 4 3 3
38 37 37 38 40 41 44 47 48 48 47 48 47 43 41 41 40 38 37 36 35 34 34 33 33 33 32 32 32 33 33 34 35 36 36 37 37 36 36 36 35 34 32 31 29 28 27 26 25 23 23 21 20 20 19 18 17 16 15 14 10 8 10 13 12 9 8 7 6 5 4 3 2 2 3 3 2 0 1 2 3 5 5 5 5 5 4 4
39 39 39 39 41 43 45 46 47 48 48 49 48 44 43 42 41 39 37 36 35 34 33 33 33 32 32 32 32 32 32 32 33 34 34 35 36 36 36 35 35 34 32 31 30 28 27 27 26 25 24 23 22 22 21 20 18 18 17 16 12 12 14 15 13 10 9 8 7 6 5 4 3 3 3 3 3 2 1 2 2 3 4 5 5 5 5 5
41 40 40 41 42 44 46 46 47 48 49 50 49 45 44 43 42 40 38 37 35 34 33 33 32 32 31 31 30 31 31 31 32 33 33 33 34 34 34 34 34 33 32 31 30 29 29 28 27 27 25 24 24 23 22 22 21 20 19 17 15 15 16 15 14 12 11 10 9 8 6 5 5 4 4 4 4 3 2 2 2 2 3 3 4 5 5 5
42 41 41 42 43 45 47 47 47 49 50 52 50 47 45 44 43 41 39 37 35 34 33 32 32 31 31 30 30 30 30 31 32 32 33 33 33 33 33 33 32 32 32 31 31 30 30 29 28 28 26 26 25 24 24 24 23 21 19 18 17 17 17 16 15 14 13 12 11 9 8 7 6 6 5 5 5 5 4 3 2 2 2 2 3 3 4 4
43 43 42 43 44 46 47 48 49 49 51 53 52 48 47 45 44 42 39 38 36 35 33 32 32 31 30 30 30 29 29 31 31 32 32 33 33 33 33 33 32 32 32 31 31 30 29 29 29 27 26 26 25 24 26 25 24 22 20 19 18 18 19 17 17 16 15 13 12 11 9 8 8 7 6 6 7 6 5 5 4 3 2 2 3 3 3 3
45 44 43 44 45 46 48 48 49 50 52 53 53 50 48 46 44 42 40 38 37 35 34 33 32 31 30 30 30 29 29 30 30 31 31 31 31 31 31 31 31 31 30 30 29 29 29 28 27 26 25 26 25 25 27 26 24 22 20 21 21 20 20 18 18 17 16 15 13 12 11 10 9 8 7 7 8 7 7 6 5 4 3 3 3 3 3 3
46 45 44 45 45 47 48 48 48 50 52 54 53 50 49 47 45 43 41 39 37 36 34 33 32 31 31 30 29 28 29 30 30 30 30 30 30 30 30 30 30 30 29 28 28 27 27 27 25 25 25 26 26 26 27 26 24 22 21 23 23 22 21 20 19 18 17 16 15 14 12 11 10 9 8 7 9 9 7 7 6 5 5 4 3 3 4 4
47 47 46 45 46 47 49 49 48 49 53 54 53 50 50 48 46 44 42 40 38 37 35 34 33 32 31 30 29 28 29 30 30 30 30 30 30 29 29 29 29 28 28 27 27 27 26 26 26 26 26 26 26 27 27 26 24 23 23 25 24 22 21 20 19 19 18 17 16 15 13 12 11 10 8 7 9 10 7 8 7 6 5 5 5 4 5 5
49 48 47 46 46 47 49 51 49 49 52 55 53 51 51 50 48 45 43 41 39 38 36 35 34 33 32 31 30 29 30 30 30 30 30 30 30 29 29 29 28 28 27 27 27 27 27 27 27 28 27 27 28 28 27 26 24 24 25 25 23 22 21 20 20 20 19 18 17 16 13 13 12 10 8 8 10 10 8 8 7 6 5 5 5 5 5 5
50 49 48 47 47 47 49 51 52 51 53 55 53 52 53 51 49 47 45 43 41 39 37 36 35 34 33 31 31 30 30 30 30 30 30 30 30 29 29 28 28 28 28 28 27 27 27 28 28 28 27 27 28 27 26 25 25 25 25 24 23 22 21 21 21 20 20 19 18 16 14 14 13 10 10 10 10 10 9 8 7 7 6 5 5 5 6 6
50 50 49 48 47 48 49 52 53 53 54 56 54 53 53 52 50 48 46 44 42 40 38 37 36 35 34 32 31 31 31 30 30 30 30 30 30 29 29 28 28 28 28 28 28 28 28 28 28 28 27 28 28 27 27 27 26 26 25 24 24 23 22 22 21 20 20 20 19 17 15 15 14 11 11 11 11 10 9 9 8 7 6 6 6 6 6 6
51 51 50 48 48 48 50 52 54 55 56 57 55 54 54 53 51 49 48 46 43 41 39 38 37 36 35 32 31 31 30 30 30 30 30 30 30 29 29 28 28 28 28 28 28 28 28 28 28 27 28 28 28 28 28 27 27 26 25 24 24 23 22 23 22 21 21 21 20 18 15 15 14 12 12 11 11 11 10 9 8 8 7 6 6 6 7 7
51 52 50 49 49 49 50 52 55 56 58 58 57 55 54 53 52 51 50 47 45 42 40 39 38 37 36 33 32 30 30 30 30 30 30 30 30 29 29 28 28 28 28 28 28 28 28 28 28 28 28 29 29 29 28 28 27 26 25 25 25 24 23 23 22 21 22 22 21 19 16 16 15 13 13 12 11 11 10 10 9 8 8 7 7 7 8 9
50 52 51 50 50 50 51 52 55 57 58 59 59 57 55 54 53 52 51 49 46 43 41 40 39 38 37 34 32 31 30 30 30 31 31 31 30 30 29 28 28 28 28 28 28 28 28 28 28 28 29 29 30 29 28 28 26 26 26 26 25 24 23 23 23 22 22 22 22 20 16 16 16 14 13 13 12 11 10 10 10 9 8 8 8 8 9 10
49 52 52 52 51 51 52 53 55 57 58 59 60 59 58 56 54 53 52 51 48 45 43 41 40 40 38 35 32 32 31 31 31 31 31 31 31 30 30 29 28 28 28 27 27 28 28 28 28 29 29 29 29 28 27 27 26 27 26 25 25 24 24 24 24 23 23 23 23 21 17 16 17 16 15 14 13 12 11 11 10 10 10 10 9 9 10 11
48 52 53 53 53 52 53 53 55 56 58 59 60 60 60 58 57 55 54 52 49 46 44 43 41 40 39 36 34 33 32 32 32 32 32 32 32 31 31 30 29 28 27 27 27 27 28 28 29 29 28 28 28 27 28 28 28 27 26 25 25 24 24 24 24 24 24 24 23 22 19 18 18 17 16 16 15 14 12 12 11 12 12 12 11 11 11 11
47 50 53 54 54 53 54 54 55 56 58 59 59 60 60 60 59 58 55 53 51 48 45 43 42 42 41 38 36 35 34 33 33 32 32 32 32 31 31 30 29 28 27 27 27 27 28 28 28 28 28 29 29 30 30 30 29 27 26 26 26 25 25 25 24 24 25 25 24 23 21 19 19 19 18 17 16 15 13 13 13 14 14 13 12 12 12 12
46 49 52 54 54 54 55 55 55 56 57 58 59 59 59 59 59 57 56 54 53 50 47 46 44 44 43 41 39 37 36 35 34 33 32 32 32 31 31 30 29 28 27 27 27 27 28 29 29 29 30 30 31 31 31 30 29 28 27 27 26 26 26 26 25 25 26 26 25 25 23 19 19 20 20 19 17 15 15 15 15 15 15 14 14 14 14 13
47 48 50 53 54 55 55 55 56 56 57 57 58 59 58 58 58 57 56 55 54 53 50 48 47 46 45 43 41 39 37 36 35 34 33 32 32 31 31 30 30 29 28 27 27 27 28 29 30 31 31 32 32 32 31 30 30 29 29 27 27 27 27 27 26 26 26 26 26 26 25 21 20 21 21 21 19 17 18 18 16 15 15 15 16 16 16 15
48 48 49 51 53 55 55 56 56 56 57 57 58 58 58 57 57 57 57 57 56 55 53 50 49 48 47 45 42 40 39 37 36 35 34 33 32 32 32 31 31 30 29 28 27 28 28 29 31 32 32 33 33 33 32 32 31 30 29 28 28 28 29 29 28 27 27 27 27 28 26 22 21 22 22 23 21 19 20 19 16 16 16 16 17 17 18 17
47 48 49 50 51 53 55 56 56 57 57 57 58 58 58 58 57 57 58 58 58 57 56 54 51 50 49 47 44 42 41 39 38 36 35 35 34 33 32 32 32 31 30 29 28 28 29 30 31 32 33 34 34 34 33 33 32 31 30 30 29 29 30 30 29 27 28 29 28 28 28 24 22 24 23 23 22 21 21 20 18 18 18 18 18 18 19 19
45 47 49 50 51 52 54 55 56 57 57 58 58 58 59 59 58 58 58 59 59 58 58 57 54 53 51 49 47 45 43 42 40 39 37 37 36 35 34 33 33 32 31 31 30 30 30 30 31 33 34 34 35 34 34 34 34 33 31 31 31 31 31 31 29 28 29 30 29 28 30 25 23 25 24 23 23 22 22 22 19 20 21 21 21 21 21 20
44 45 47 49 51 51 52 54 55 56 57 58 58 58 59 59 59 59 59 60 61 60 59 58 56 55 53 52 50 48 46 45 43 42 40 39 38 37 36 35 34 33 33 32 32 32 31 31 32 33 33 33 34 35 35 36 35 34 33 32 32 32 32 32 30 30 30 30 29 29 31 28 24 24 23 23 24 24 24 23 21 21 23 23 23 23 23 22
45 44 45 47 49 51 52 53 54 55 56 57 58 59 59 59 60 60 59 61 62 61 60 59 57 55 54 54 52 50 49 47 45 45 44 42 41 39 38 37 36 35 34 34 33 32 32 32 32 32 32 32 33 35 36 37 36 36 34 34 34 33 34 33 32 31 31 31 30 29 32 32 26 21 21 25 25 25 25 24 23 24 25 24 24 24 25 26
49 47 45 45 46 49 50 51 53 54 55 55 57 58 59 59 60 60 60 62 63 61 60 60 58 56 55 55 54 52 51 49 47 47 45 44 43 42 41 39 37 37 37 35 34 33 33 33 33 33 33 34 34 35 37 38 38 37 36 36 36 35 35 35 34 33 33 32 31 30 31 35 30 20 20 25 26 25 25 24 24 25 25 25 25 26 27 28
51 51 49 47 46 46 48 49 50 52 52 53 55 56 57 58 59 60 61 63 64 62 60 60 59 58 57 56 55 54 53 51 50 49 47 46 46 44 43 42 40 40 40 38 36 35 35 35 36 35 35 35 35 36 38 38 39 38 38 38 37 37 37 37 36 35 35 34 32 31 31 34 34 24 21 25 27 26 25 24 25 25 25 26 27 29 30 30
50 52 53 52 49 48 48 48 50 50 50 51 54 55 56 57 58 60 62 64 64 63 61 60 60 60 59 58 57 55 54 54 52 51 50 49 48 46 46 44 43 42 42 41 39 38 37 36 37 37 36 36 36 37 38 38 39 39 39 39 39 39 38 39 38 37 38 36 32 32 31 33 37 31 24 25 27 27 27 27 26 25 26 28 29 31 32 32
50 51 52 52 52 52 51 50 51 51 51 51 52 54 55 56 57 60 64 64 63 64 63 62 61 60 60 59 58 57 55 55 54 53 52 51 50 49 48 47 46 45 44 43 42 40 39 38 38 38 38 37 37 38 39 39 40 39 40 40 40 41 40 40 40 39 40 37 34 35 33 33 37 35 28 26 26 27 29 29 27 27 28 30 31 32 33 34
49 49 49 49 51 52 52 53 52 52 52 52 53 54 54 56 58 62 63 61 62 65 64 63 62 61 60 60 59 58 57 56 55 54 53 53 53 51 50 49 47 46 45 45 44 42 41 40 40 40 40 39 39 40 41 41 42 42 41 41 41 41 41 41 40 41 41 39 38 39 38 36 36 34 35 33 28 26 28 29 28 29 30 32 32 33 35 36
49 49 48 47 49 51 52 52 53 53 54 54 54 54 54 57 60 62 62 61 63 66 64 63 62 61 61 60 59 59 58 57 56 54 53 53 53 52 52 51 49 48 46 45 45 45 44 44 44 43 43 42 41 42 42 42 42 43 42 41 41 41 42 42 41 42 43 42 42 43 42 40 36 34 37 37 33 30 29 30 31 31 32 33 34 35 36 37
52 52 50 46 45 49 52 52 53 54 55 56 56 56 57 59 59 58 60 61 63 65 63 62 63 62 62 61 60 59 59 58 58 57 56 55 54 54 53 53 52 51 50 49 49 48 48 48 47 46 46 44 43 43 42 43 43 43 43 43 43 43 43 43 43 44 43 43 45 46 45 42 38 37 37 38 38 37 34 35 35 35 35 36 36 37 38 39
49 52 51 49 46 47 48 50 52 55 56 57 58 59 60 59 58 57 58 60 61 63 62 61 62 62 62 61 61 60 59 59 58 57 57 57 56 55 54 53 52 52 52 51 51 50 50 50 48 48 48 46 45 45 45 45 46 45 46 46 44 43 43 45 46 45 44 45 46 47 46 43 40 40 40 40 41 40 40 40 40 40 40 40 40 41 42 42
46 49 50 50 49 48 47 46 48 52 56 58 60 60 56 53 55 56 56 57 57 58 60 61 60 61 61 61 61 61 60 60 59 59 58 57 56 56 55 54 53 53 52 51 51 51 51 51 49 48 48 47 47 47 46 47 47 47 47 46 44 43 44 46 47 46 47 48 47 46 45 43 41 42 41 41 42 42 42 42 42 43 43 43 43 44 44 43
50 49 50 51 50 50 50 49 47 47 52 58 60 56 50 49 52 54 54 55 54 55 57 58 58 58 58 59 60 60 60 60 60 60 59 58 58 57 55 55 54 54 54 52 52 52 52 51 51 50 49 49 48 48 48 48 48 48 47 45 45 46 47 48 48 48 49 50 48 45 44 42 41 41 40 41 42 42 42 43 43 44 45 45 45 44 43 42
54 52 51 51 51 51 51 52 52 50 50 54 55 51 49 51 51 51 53 54 54 55 56 56 55 55 55 55 55 56 56 57 58 58 58 58 59 57 55 55 54 54 53 53 53 54 54 53 53 53 51 51 51 51 51 50 50 50 48 47 48 49 50 50 50 49 49 50 49 45 44 43 40 39 40 41 43 44 44 45 45 45 46 47 47 46 44 43
56 57 56 53 52 52 52 52 55 56 55 53 50 47 48 49 51 53 54 54 55 56 56 57 56 54 54 53 52 52 52 52 54 54 55 56 56 55 53 53 53 52 52 52 52 53 53 53 54 54 53 52 52 52 52 51 51 50 49 49 50 50 51 51 51 51 50 51 50 47 47 45 38 36 39 42 43 45 46 47 47 47 48 49 48 47 47 46
55 57 60 59 57 56 53 53 56 59 59 59 55 50 47 47 49 53 54 54 55 56 56 56 55 54 53 52 51 51 50 50 50 51 51 52 52 52 52 51 51 51 50 51 51 51 52 54 55 55 55 55 54 53 52 50 49 49 49 50 50 50 52 52 52 52 51 52 52 51 51 46 39 38 40 41 43 44 46 47 48 49 50 50 49 49 49 49
55 56 58 60 60 60 59 58 59 60 61 61 59 56 52 49 48 50 52 52 53 55 56 56 55 55 53 52 51 51 51 50 49 49 49 50 50 50 51 50 50 49 48 49 51 52 52 54 55 56 57 57 55 53 52 50 50 51 51 52 52 52 53 53 55 55 54 54 53 54 55 49 42 41 42 43 45 45 47 49 50 51 51 51 52 52 52 52
57 57 57 58 59 62 64 64 63 63 63 62 60 58 56 53 50 50 51 51 50 51 53 54 55 55 55 54 53 52 52 52 52 51 50 49 48 48 49 49 48 49 49 49 49 48 48 50 53 55 56 56 55 54 54 54 54 54 55 56 56 57 57 57 58 57 56 57 55 57 58 50 43 43 43 44 45 45 48 50 49 50 51 51 53 53 54 53
58 58 59 59 59 61 64 66 65 64 63 62 62 62 61 58 55 53 53 53 53 52 51 51 52 53 55 55 55 55 55 55 54 53 52 51 49 49 49 50 50 50 50 50 49 48 48 49 52 55 56 56 57 58 58 58 58 58 59 58 58 59 59 58 58 57 58 59 57 59 61 52 45 45 45 44 45 46 49 49 48 50 51 51 53 54 54 54
58 58 58 60 61 62 63 63 63 62 61 61 63 65 65 63 61 59 57 56 56 56 55 54 53 52 52 52 52 54 55 56 57 56 55 54 54 53 52 53 53 52 52 52 51 50 51 51 52 54 55 57 59 60 61 61 61 61 59 57 57 56 56 56 57 57 59 59 58 61 62 53 46 47 46 45 47 47 49 50 49 50 52 52 54 54 54 53
56 57 58 58 61 63 63 62 62 61 60 62 63 63 63 64 63 63 62 60 59 58 58 58 57 55 54 53 51 50 51 53 54 56 57 56 56 55 55 55 56 56 55 54 53 52 52 53 53 55 57 59 60 60 59 57 57 57 56 54 54 54 54 55 55 57 59 58 57 61 61 53 48 49 48 48 48 48 49 52 52 51 51 52 52 53 53 52
55 56 57 58 59 62 63 63 63 63 63 63 63 62 62 62 62 62 63 63 63 61 60 60 59 58 57 56 54 52 51 52 52 53 54 56 57 57 57 57 57 58 58 57 56 56 56 56 56 57 59 59 59 59 57 56 56 56 55 54 54 54 55 55 57 59 58 57 58 60 58 54 50 49 49 49 48 47 50 53 53 52 51 51 52 52 53 53
55 56 56 56 58 60 62 62 63 64 65 65 66 65 64 62 62 62 63 63 63 62 61 60 60 60 59 58 56 55 56 56 55 53 52 53 56 57 57 57 58 58 58 58 58 59 59 60 60 60 59 59 60 60 60 60 60 59 58 57 56 56 56 57 59 59 57 58 61 58 56 57 54 48 49 51 48 49 51 52 53 53 53 53 52 52 52 53
54 55 55 55 56 59 60 61 61 62 64 66 67 67 67 65 64 65 63 62 63 63 61 61 62 60 59 58 58 59 59 59 58 56 54 53 53 54 55 56 56 57 57 57 57 58 60 61 61 61 61 60 61 62 62 62 63 62 61 60 59 58 59 60 60 58 58 61 62 57 57 60 56 51 53 53 50 50 51 51 51 52 53 53 52 52 52 53
54 54 54 55 56 58 59 59 60 62 63 64 65 66 68 67 66 65 64 63 63 64 62 61 60 59 59 59 60 61 61 60 58 57 55 54 54 54 53 51 52 54 56 56 56 56 57 58 58 59 60 59 60 62 62 64 65 64 63 62 61 61 61 61 61 60 61 63 63 60 62 63 58 55 55 53 51 52 52 51 51 51 52 53 53 54 55 55
55 55 55 56 56 57 58 59 60 61 63 64 65 66 67 68 67 66 66 66 65 65 64 61 58 58 59 61 62 62 61 59 57 56 55 55 55 54 52 49 48 49 51 52 53 54 54 54 54 55 56 57 57 57 59 61 63 64 64 64 64 64 64 65 65 63 63 64 63 62 64 63 58 55 54 51 51 53 52 52 52 51 52 55 57 58 59 58
58 57 57 57 56 56 58 59 59 60 61 63 65 65 65 66 67 66 67 68 67 68 67 64 62 61 61 61 61 60 58 58 57 56 55 54 53 53 54 52 51 51 50 49 50 50 50 51 51 51 53 54 53 54 56 57 58 61 63 62 61 62 64 64 63 62 62 62 60 61 62 60 54 53 53 52 53 54 53 53 53 53 55 58 60 61 61 60
62 61 61 60 59 58 59 59 59 60 60 61 61 62 62 62 63 63 64 66 66 67 67 66 65 66 66 64 61 57 56 57 57 58 58 56 54 52 53 54 53 53 52 52 52 50 49 50 50 51 53 52 51 53 55 55 57 60 60 58 57 60 62 61 60 60 59 58 58 59 60 57 54 55 56 55 54 55 55 55 55 56 58 61 62 62 61 62
Wind_Direction
201 202 203 201 199 200 201 198 195 195 194 190 184 183 186 187 186 185 184 184 182 181 180 180 181 182 182 184 185 187 189 189 189 189 188 189 189 189 190 191 192 192 192 192 194 195 198 200 203 205 208 211 212 216 220 222 226 227 229 234 236 233 230 228 221 212 202 183 168 158 149 128 132 163 168 101 48 34 28 25 19 21 19 25 36 28 25 24
201 200 201 201 200 201 203 201 197 196 195 192 187 184 187 188 187 186 185 186 185 184 182 180 180 180 181 182 184 185 187 188 189 190 190 191 192 192 193 195 196 197 197 198 199 200 202 205 208 211 213 216 218 222 225 226 229 229 231 238 242 238 227 229 230 225 218 203 186 172 181 173 148 188 207 213 36 37 32 29 26 27 23 28 37 36 33 26
201 199 199 199 199 200 203 203 199 197 196 193 187 184 186 186 186 186 186 187 187 186 185 183 182 181 180 180 182 183 185 187 189 190 191 192 194 195 196 198 200 201 202 203 204 205 206 208 211 215 218 221 222 226 228 228 230 231 233 240 243 232 221 232 236 228 223 220 206 185 204 218 167 206 232 227 244 28 29 25 31 32 25 30 37 35 35 27
200 199 197 197 197 199 202 204 200 197 197 194 186 183 186 187 187 187 187 188 188 188 187 186 185 184 182 181 181 182 184 187 189 190 191 193 195 197 199 201 203 204 206 207 208 209 211 213 215 217 220 222 224 227 229 230 232 231 234 240 239 225 219 230 235 228 224 227 223 205 213 235 216 225 244 238 239 300 20 9 27 39 31 30 37 37 34 30
201 199 197 196 196 197 201 204 201 197 197 194 186 183 188 189 189 189 189 190 190 190 189 189 189 187 186 184 183 183 185 187 188 190 192 194 196 198 200 202 205 207 208 210 211 213 215 218 220 221 221 222 224 226 229 232 233 232 234 238 231 222 221 227 233 230 227 229 232 225 223 239 242 246 251 244 244 243 289 331 358 30 37 32 36 38 36 34
202 200 198 196 195 196 200 203 202 198 197 194 185 184 190 191 191 191 192 193 193 193 192 192 192 190 189 188 187 186 188 189 188 190 193 195 197 199 201 203 206 208 210 211 213 215 217 219 221 222 223 223 224 225 228 231 232 231 233 235 228 224 226 227 231 232 231 231 233 235 233 239 247 254 260 255 247 242 244 270 313 347 15 26 33 37 38 35
203 201 199 196 195 196 199 202 202 199 198 193 185 185 192 193 194 194 194 195 195 195 195 195 194 193 192 191 191 190 192 192 190 191 193 195 198 200 202 204 207 209 211 213 214 216 219 221 222 223 223 224 226 226 229 230 230 231 230 231 228 225 227 225 227 230 232 234 236 238 238 244 251 257 265 266 253 241 241 246 262 293 327 349 7 22 26 24
203 202 200 198 196 196 198 201 202 200 199 194 186 187 193 195 195 195 195 196 197 197 196 196 196 195 194 193 192 193 194 194 193 193 194 195 197 199 202 204 207 209 211 213 214 217 219 221 223 224 224 226 228 226 228 229 229 229 227 228 225 224 225 223 223 227 231 235 238 241 242 247 254 259 264 267 263 247 241 247 253 265 282 308 330 346 356 1
203 202 201 199 197 196 198 200 202 201 201 196 188 188 194 196 197 197 197 197 198 199 198 197 197 196 196 195 193 194 196 195 195 195 196 196 198 199 202 204 206 208 210 211 213 215 218 220 223 225 225 227 227 224 227 228 228 226 224 226 225 223 223 222 222 226 231 235 238 242 244 248 256 262 264 268 270 257 243 245 251 264 273 281 301 316 327 335
203 202 201 200 199 197 197 200 202 201 201 196 189 190 196 197 198 198 198 199 199 200 200 200 199 198 198 196 195 197 197 196 196 196 196 197 198 200 202 204 205 207 208 209 211 214 217 220 221 222 223 224 224 223 226 227 226 224 222 224 224 222 221 221 222 224 229 234 238 242 244 250 256 260 266 270 268 260 248 246 248 257 271 280 287 298 309 317
203 202 202 201 200 198 196 199 201 201 202 196 190 193 197 198 199 199 200 200 200 201 202 202 201 200 199 198 198 200 199 198 197 196 196 197 198 200 202 204 205 207 209 210 212 214 217 219 220 221 221 222 223 223 225 225 225 222 220 223 224 221 221 221 223 224 229 233 238 241 244 250 254 259 269 266 259 260 253 249 251 252 261 276 285 288 294 299
202 202 201 201 201 200 197 198 200 201 201 196 191 195 199 200 200 200 201 202 202 203 203 204 204 203 201 200 201 201 199 199 199 197 198 198 199 201 202 204 207 209 211 213 215 216 218 219 220 222 221 221 221 223 224 224 223 222 222 224 224 223 222 223 224 225 228 233 237 241 242 249 253 256 263 257 253 258 253 249 252 253 255 265 275 282 286 291
202 202 201 201 201 200 198 197 199 200 200 196 193 197 200 200 201 202 203 203 204 204 205 205 205 205 203 202 203 201 201 201 200 200 200 201 202 203 205 207 209 211 213 215 217 218 219 219 220 221 220 220 220 221 223 222 222 223 223 223 224 224 223 224 226 226 230 233 237 239 240 248 253 253 255 252 251 251 246 246 248 251 253 257 266 275 282 290
202 202 201 201 201 201 199 197 198 199 200 197 196 199 201 201 202 203 204 204 205 206 206 207 207 206 206 205 204 202 203 203 202 203 203 203 204 205 207 209 211 213 215 216 217 218 218 219 219 218 217 218 219 219 220 219 220 222 223 223 224 224 224 226 227 228 232 235 237 237 239 247 251 252 254 248 246 246 239 238 240 243 246 252 264 273 282 290
202 202 201 201 201 202 200 198 197 198 200 199 198 200 202 203 203 204 205 205 206 208 208 209 209 208 208 207 206 204 205 205 204 205 205 205 206 207 208 210 212 214 216 217 217 217 217 218 218 217 215 216 218 218 219 219 220 222 222 223 224 224 225 227 228 228 232 236 237 236 237 246 250 249 251 243 239 240 234 233 233 236 243 250 264 275 282 287
202 202 202 201 201 202 201 200 198 198 199 200 201 202 203 204 204 206 207 207 207 209 210 211 211 210 210 209 208 207 207 207 206 207 207 207 208 209 210 212 214 215 216 217 217 217 217 217 217 215 214 215 216 217 218 219 220 222 223 224 225 225 226 229 230 230 233 236 238 236 233 242 248 244 243 239 232 232 231 232 234 238 247 255 265 277 285 287
202 202 202 202 202 202 202 201 200 199 199 201 202 204 204 205 206 207 208 208 209 210 211 213 212 212 212 210 209 209 210 210 209 208 209 209 210 210 211 213 215 216 217 217 216 217 216 217 217 216 215 216 217 217 218 220 220 222 225 226 227 227 227 229 232 233 234 237 239 238 233 238 246 240 236 236 227 224 227 233 239 244 251 258 265 277 285 289
202 202 202 202 202 202 202 202 201 201 200 201 203 204 206 206 207 209 210 210 209 211 213 214 214 214 213 211 211 213 212 212 211 210 211 211 212 212 213 214 216 217 217 217 217 217 217 217 217 217 217 218 219 219 220 222 222 224 227 229 229 230 230 230 232 234 236 237 238 239 234 235 242 239 233 233 227 223 228 235 241 246 253 259 265 272 277 284
203 203 203 203 203 203 203 203 202 202 201 201 203 204 206 208 209 210 211 211 211 212 214 215 215 215 214 213 214 215 215 215 214 212 212 213 213 214 215 216 217 218 218 218 218 218 218 219 219 220 220 221 221 221 222 223 224 226 228 231 232 232 233 233 233 235 237 238 239 239 235 232 239 240 234 232 229 228 232 237 242 248 255 262 269 273 275 279
204 204 204 204 204 204 204 204 203 203 203 203 203 204 206 208 210 212 212 212 212 213 215 216 217 217 216 215 216 217 216 216 216 215 214 214 215 216 216 217 218 219 220 219 219 219 220 221 221 222 222 222 222 222 223 224 225 227 229 232 235 234 234 235 234 234 236 238 239 239 236 232 235 239 236 233 232 233 234 236 243 252 259 266 271 274 275 277
206 205 205 205 205 205 205 205 204 204 204 204 205 205 206 208 211 213 214 214 214 213 215 217 218 219 219 217 217 217 218 218 218 217 216 216 217 218 218 219 220 220 221 221 221 221 222 222 223 223 224 224 225 224 225 226 227 229 230 232 236 237 235 236 235 234 236 237 238 240 238 232 232 236 238 239 236 235 236 238 244 255 266 274 278 279 279 281
207 206 206 206 206 206 207 206 205 205 205 205 206 206 207 208 210 212 214 216 216 215 216 218 218 219 220 219 218 219 219 220 220 220 219 219 218 219 220 221 222 222 222 223 223 223 223 224 224 225 225 226 228 228 228 230 231 231 232 233 235 238 238 237 236 236 238 239 239 241 240 232 231 234 237 242 240 237 241 242 246 255 265 272 275 280 283 284
207 208 207 207 208 208 208 207 207 207 206 206 206 207 208 208 209 211 213 215 216 217 218 219 220 220 221 221 220 220 222 222 222 222 222 222 221 222 222 222 224 224 224 225 226 226 226 227 227 227 228 228 229 230 230 232 233 233 234 234 235 237 239 240 239 238 240 241 241 241 240 232 231 234 235 241 242 241 246 249 252 258 263 266 270 275 278 281
207 208 209 209 209 209 209 209 208 208 208 208 208 208 208 209 210 210 212 214 216 217 218 219 220 221 222 222 221 221 223 223 224 224 223 223 224 224 224 224 225 225 226 226 227 228 228 229 229 229 230 230 231 232 233 234 235 235 235 236 236 237 239 240 241 241 241 242 242 242 242 233 231 236 234 238 243 244 249 253 256 262 265 267 271 273 275 278
209 208 209 209 210 210 210 210 210 210 210 210 210 209 209 210 211 211 212 215 216 217 218 219 219 221 222 222 222 222 224 225 225 225 225 225 226 226 226 226 227 227 227 228 228 229 230 231 231 232 232 232 233 233 234 236 237 236 236 237 238 238 239 241 242 242 242 242 242 243 246 238 230 236 235 236 242 244 248 252 255 261 266 268 270 272 274 277
210 211 210 210 210 211 212 212 212 211 211 211 212 212 211 212 213 213 214 215 216 217 218 219 219 220 221 222 223 222 224 225 225 226 226 227 228 228 228 228 229 229 229 229 230 230 232 233 233 234 235 234 236 236 236 237 238 238 237 238 240 240 241 243 243 243 242 242 243 244 249 246 234 234 237 238 243 244 246 251 254 259 263 267 271 274 276 276
211 211 213 213 212 211 212 213 213 213 213 213 213 214 214 214 215 215 215 217 217 217 218 219 220 221 222 223 224 223 224 226 227 228 228 228 229 230 230 230 231 232 232 231 232 233 235 236 237 238 238 238 238 239 239 239 239 240 239 240 241 242 243 244 244 244 243 243 242 242 249 254 244 229 232 240 245 245 246 250 253 257 261 267 272 275 277 278
214 213 214 215 216 215 214 214 214 215 215 215 215 215 216 216 217 217 217 219 218 217 219 220 220 221 222 224 224 224 225 226 228 229 230 231 231 231 232 232 233 234 234 233 233 234 235 237 238 238 239 239 239 239 240 241 241 241 241 241 243 244 245 246 245 244 244 243 243 242 248 257 255 234 226 240 246 246 246 248 250 254 259 265 270 272 274 276
218 218 217 216 218 218 218 217 216 215 216 216 217 217 217 217 218 218 219 220 219 218 219 220 221 221 222 224 225 226 226 227 229 230 230 232 232 233 234 234 234 236 236 235 235 235 235 237 238 238 239 240 240 241 242 243 243 243 243 243 244 245 245 247 247 246 246 245 244 244 246 257 262 250 230 237 246 249 248 248 249 252 257 261 265 267 269 272
219 220 220 219 220 221 221 220 218 217 216 217 218 218 218 218 219 220 220 220 220 220 220 221 222 223 224 225 226 227 227 228 230 231 231 232 232 233 233 234 234 236 238 237 237 237 237 239 240 241 241 241 242 243 244 244 245 245 245 246 246 246 247 247 249 249 249 248 248 247 246 255 264 259 241 234 242 250 252 250 250 252 255 259 262 265 267 270
219 219 220 221 221 222 222 221 220 218 217 218 219 219 219 219 219 221 222 221 222 223 222 222 223 224 225 226 228 229 229 230 231 231 232 233 234 234 234 235 235 236 238 239 239 239 239 240 241 243 243 243 243 245 245 246 246 246 246 247 247 247 247 247 249 251 251 252 252 251 248 249 258 263 259 247 240 245 251 253 253 253 254 257 261 264 267 269
216 217 219 221 222 222 222 222 221 219 218 218 219 219 219 220 220 222 222 222 224 226 224 224 225 226 227 227 228 229 231 232 232 233 234 234 235 236 236 237 238 238 240 241 243 242 242 242 243 243 244 244 244 244 246 246 247 247 247 247 248 249 249 249 249 250 252 252 253 254 251 249 253 262 267 263 254 248 250 254 256 255 256 259 261 264 267 269
216 216 218 219 221 223 223 223 222 221 219 218 218 219 220 221 222 224 223 223 225 227 226 226 227 227 228 229 229 230 231 232 232 233 234 235 236 237 237 238 239 240 241 242 243 243 243 243 243 243 244 244 245 245 247 248 248 249 249 250 250 251 251 251 250 250 251 252 253 255 254 253 255 258 263 267 266 261 258 259 259 259 260 260 261 262 264 267
219 217 217 215 217 222 224 224 224 223 221 220 220 219 220 223 224 224 224 225 227 228 227 227 227 228 229 229 230 231 232 233 233 233 234 235 236 237 238 240 240 241 241 241 242 243 243 243 243 244 244 244 245 246 247 248 249 249 249 250 250 251 253 253 252 251 251 251 252 253 255 257 259 260 262 266 268 268 266 265 264 263 262 262 263 263 263 264
216 214 215 214 212 216 221 223 225 225 223 222 222 221 222 225 225 224 225 226 227 228 229 229 228 229 229 230 230 231 232 233 234 235 235 235 236 237 238 240 241 242 243 243 245 246 246 246 246 246 246 246 245 245 246 247 248 248 249 250 252 253 254 255 255 254 254 253 252 253 255 259 262 263 263 265 267 269 269 267 266 266 265 265 265 265 265 264
215 212 212 213 212 212 215 218 221 224 226 225 224 226 228 228 227 226 226 227 228 228 229 229 229 229 230 230 231 232 232 234 234 235 236 236 237 237 238 239 241 242 243 244 246 246 247 248 247 246 247 247 247 246 247 247 248 249 250 252 255 255 255 255 256 256 256 255 253 253 255 258 261 263 265 267 268 269 269 270 271 271 270 268 267 266 267 267
220 216 213 212 212 212 213 214 215 219 225 227 228 230 233 231 230 229 228 229 230 230 231 232 231 231 232 232 232 233 233 234 235 236 236 237 237 238 238 239 240 241 242 243 244 244 245 246 245 245 245 245 246 246 246 246 248 249 251 252 253 253 253 253 254 255 256 257 256 255 256 257 259 263 266 267 268 269 271 272 272 272 272 272 270 270 270 271
218 218 215 213 212 212 213 214 215 216 221 226 229 230 231 231 231 231 230 230 231 231 232 233 233 232 234 234 234 235 235 235 236 237 238 239 239 239 240 241 241 242 243 243 243 244 244 245 245 245 245 244 244 244 245 246 248 249 251 251 250 251 253 253 254 255 256 258 259 259 259 258 257 261 265 267 268 270 270 270 270 271 272 272 273 274 274 273
211 214 216 216 215 214 214 215 217 219 220 224 226 226 227 229 230 231 231 231 231 232 232 234 234 233 233 234 234 235 236 237 238 239 240 241 241 241 241 242 242 243 243 243 244 245 246 246 246 246 246 245 245 245 247 249 250 250 250 250 250 252 253 254 255 256 256 258 260 260 259 258 258 260 263 265 267 269 270 270 270 271 270 271 272 274 275 275
208 208 211 214 216 218 219 219 219 221 222 223 224 224 225 226 227 230 231 232 232 233 234 235 235 235 234 234 234 234 235 236 237 238 239 240 241 241 240 241 242 242 243 243 244 244 245 245 246 246 246 246 247 248 249 250 250 250 249 250 251 252 253 254 254 255 256 257 258 259 259 258 258 259 261 263 265 266 268 270 270 270 271 272 273 274 275 276
215 210 208 209 213 218 221 221 219 220 222 224 224 224 225 225 226 228 229 230 232 233 234 235 236 237 237 236 235 236 236 236 235 236 237 238 239 240 239 239 240 240 240 241 242 243 244 245 246 246 246 247 249 249 248 247 246 247 248 249 250 251 251 252 252 253 254 254 255 257 259 259 259 258 259 261 263 265 267 268 269 271 273 274 275 275 276 277
224 220 214 210 210 214 219 221 219 219 221 222 223 223 224 225 226 228 228 228 229 231 232 234 235 237 237 236 235 235 236 236 236 235 236 236 236 237 238 237 237 237 237 238 240 241 243 244 244 244 245 246 247 247 246 246 245 245 246 248 248 248 248 249 251 252 252 253 253 255 257 260 260 259 259 261 263 265 266 266 268 270 272 274 274 275 276 277
229 227 223 219 214 213 215 219 221 221 221 223 223 223 223 222 223 227 230 230 229 230 231 232 233 235 236 236 235 235 235 236 236 235 235 235 234 235 235 235 235 235 235 236 236 237 238 239 240 241 241 241 242 244 244 245 245 245 245 246 246 247 248 249 250 251 251 252 254 255 257 260 262 261 261 262 262 262 264 266 268 269 270 271 272 273 274 276
230 229 227 226 223 219 216 217 219 222 223 224 224 224 223 223 222 225 229 231 232 232 232 233 233 234 235 236 236 237 237 237 236 236 235 235 234 234 234 235 235 235 235 236 236 237 238 239 240 241 241 241 241 242 243 244 246 246 247 247 247 248 249 249 250 251 252 254 257 257 259 261 262 262 261 260 261 261 263 265 265 266 268 269 271 273 275 277
229 229 229 228 227 226 222 219 218 219 220 222 224 225 225 224 223 225 227 229 232 233 233 234 234 235 235 236 236 238 241 242 241 239 238 237 237 236 236 236 236 237 236 236 237 238 239 240 240 241 243 243 243 245 246 249 251 251 251 251 251 251 251 251 252 252 254 257 258 259 261 262 260 260 260 258 258 259 261 263 263 264 266 268 270 273 275 277
229 229 229 229 229 229 227 225 222 219 218 219 221 224 226 226 225 225 227 228 230 232 233 234 234 234 235 235 235 236 239 242 243 242 240 240 239 238 238 238 238 239 239 238 238 239 240 240 241 241 243 244 246 247 248 249 250 251 250 250 251 251 250 251 251 252 256 259 258 258 263 263 258 258 260 260 260 260 260 262 264 265 267 268 269 271 273 275
231 230 229 230 231 230 229 228 227 225 223 222 221 220 223 225 225 225 226 227 228 230 233 234 234 233 233 234 234 234 235 237 240 241 241 241 240 239 239 240 240 240 240 240 240 239 240 241 243 244 244 245 246 247 248 248 249 249 250 250 251 251 251 252 252 255 258 259 258 260 263 263 260 258 260 261 260 260 261 263 266 269 270 270 271 272 272 273
233 232 231 231 231 231 230 229 229 228 228 227 225 221 220 221 222 224 225 226 227 228 229 232 234 234 234 235 235 235 235 236 237 238 240 241 242 242 241 242 243 242 241 242 242 242 241 242 243 245 246 246 248 249 250 251 251 252 252 252 253 253 254 255 256 258 258 258 259 260 261 262 260 259 260 262 262 263 264 266 267 268 270 271 272 272 271 271
235 234 234 233 232 231 230 229 229 229 229 230 228 226 224 222 220 221 223 224 225 225 226 229 232 235 237 238 237 237 237 237 238 239 240 242 244 244 244 245 246 246 244 244 245 245 244 244 244 245 247 248 249 251 252 253 255 255 255 256 256 256 257 258 258 258 259 260 260 260 261 261 261 260 262 265 267 267 266 266 266 266 268 270 271 270 270 270
236 235 235 235 234 233 231 230 229 229 230 230 230 228 228 226 223 223 224 224 225 225 227 228 229 233 236 238 240 241 240 240 240 241 241 241 242 242 242 242 243 245 245 246 247 248 248 248 246 246 248 248 249 252 253 254 256 257 258 258 258 258 258 258 259 259 260 261 262 262 262 262 262 264 264 263 265 266 264 263 265 266 267 268 268 269 269 270
235 236 236 236 235 234 234 232 231 230 230 230 231 230 230 230 228 228 228 228 228 228 230 230 230 231 232 233 235 237 239 240 241 241 240 239 238 237 236 237 238 240 240 242 245 247 249 249 248 248 249 248 249 251 253 254 254 254 255 256 257 258 259 259 260 261 262 264 264 263 263 263 263 265 263 259 260 262 262 262 264 265 266 267 267 268 269 270
235 235 236 236 235 235 235 234 233 232 231 231 231 232 232 232 232 232 233 232 231 231 231 232 232 232 231 231 231 231 232 233 235 237 237 236 234 232 232 234 236 238 239 239 239 241 244 245 246 247 248 247 245 245 247 246 245 247 252 255 257 260 262 263 263 263 264 264 263 263 264 264 262 261 261 261 260 261 263 263 264 265 266 265 265 266 269 271
Height
5732 5734 5736 5738 5741 5744 5747 5750 5754 5758 5763 5766 5769 5773 5776 5780 5783 5786 5789 5792 5794 5797 5799 5802 5804 5807 5809 5811 5814 5817 5820 5823 5826 5829 5831 5833 5835 5838 5840 5843 5845 5847 5849 5851 5854 5855 5857 5859 5860 5862 5863 5864 5866 5867 5868 5869 5871 5872 5873 5873 5874 5876 5877 5878 5879 5879 5880 5881 5882 5882 5882 5883 5883 5884 5884 5885 5885 5885 5885 5885 5885 5885 5885 5885 5884 5884 5884 5884
5729 5732 5734 5737 5739 5742 5745 5748 5752 5756 5761 5764 5768 5771 5775 5778 5782 5785 5788 5791 5794 5796 5798 5801 5803 5806 5808 5810 5813 5816 5819 5822 5825 5827 5829 5832 5834 5837 5839 5842 5844 5846 5848 5850 5852 5854 5856 5858 5860 5861 5862 5863 5864 5866 5867 5868 5869 5871 5871 5872 5874 5875 5877 5877 5878 5879 5880 5881 5881 5882 5882 5882 5883 5883 5884 5885 5885 5885 5885 5885 5885 5885 5885 5885 5884 5884 5884 5884
5727 5729 5732 5735 5738 5740 5743 5747 5750 5754 5759 5762 5766 5770 5774 5777 5781 5784 5787 5790 5793 5795 5798 5800 5802 5805 5807 5809 5812 5815 5817 5820 5823 5825 5828 5830 5833 5835 5838 5840 5843 5845 5847 5849 5851 5853 5854 5856 5858 5860 5861 5862 5863 5864 5866 5867 5868 5870 5870 5871 5873 5875 5876 5876 5877 5879 5879 5880 5881 5881 5881 5882 5883 5883 5884 5884 5885 5885 5885 5885 5885 5885 5885 5885 5885 5884 5884 5884
5724 5727 5730 5733 5736 5739 5741 5744 5749 5753 5757 5761 5764 5768 5773 5776 5779 5783 5786 5789 5792 5794 5797 5799 5801 5803 5806 5808 5811 5814 5816 5818 5821 5823 5826 5829 5831 5834 5836 5839 5841 5844 5846 5848 5849 5851 5853 5855 5857 5859 5860 5861 5862 5863 5865 5866 5867 5869 5869 5871 5873 5874 5874 5874 5876 5878 5879 5879 5880 5881 5881 5881 5882 5883 5883 5884 5884 5884 5884 5884 5884 5885 5885 5884 5884 5884 5884 5884
5722 5725 5728 5731 5734 5737 5740 5742 5747 5751 5755 5759 5762 5767 5772 5775 5778 5781 5784 5788 5790 5793 5796 5798 5800 5802 5804 5807 5809 5812 5814 5817 5819 5822 5825 5827 5829 5832 5835 5837 5840 5842 5844 5846 5848 5850 5852 5853 5856 5857 5858 5860 5861 5862 5863 5865 5866 5867 5868 5870 5872 5873 5873 5873 5875 5876 5878 5878 5879 5879 5880 5881 5881 5882 5882 5883 5883 5884 5884 5884 5884 5884 5884 5884 5884 5884 5884 5884
5720 5723 5726 5729 5732 5735 5738 5741 5745 5749 5753 5757 5760 5765 5770 5774 5777 5780 5783 5786 5789 5792 5794 5797 5799 5801 5803 5805 5808 5810 5813 5815 5818 5820 5823 5825 5828 5831 5833 5836 5838 5840 5843 5844 5846 5848 5850 5852 5854 5855 5857 5858 5859 5860 5862 5863 5864 5866 5867 5869 5871 5871 5871 5872 5874 5875 5876 5877 5878 5878 5879 5880 5880 5881 5882 5882 5883 5883 5884 5884 5884 5884 5884 5884 5884 5884 5884 5884
5717 5721 5723 5727 5730 5733 5736 5739 5743 5747 5751 5755 5758 5763 5768 5772 5776 5778 5781 5784 5787 5790 5793 5795 5797 5799 5802 5804 5806 5809 5811 5813 5816 5819 5821 5824 5827 5829 5832 5834 5837 5839 5841 5843 5845 5846 5848 5850 5852 5853 5855 5856 5857 5859 5860 5861 5862 5864 5866 5868 5869 5870 5870 5872 5873 5874 5875 5876 5877 5877 5878 5879 5879 5880 5881 5881 5882 5882 5883 5883 5884 5884 5884 5884 5884 5884 5884 5884
5714 5718 5721 5724 5727 5730 5733 5736 5741 5745 5749 5753 5756 5761 5766 5770 5774 5777 5780 5782 5785 5788 5791 5793 5796 5798 5800 5802 5805 5807 5809 5812 5815 5817 5819 5822 5825 5828 5830 5832 5834 5837 5839 5841 5843 5844 5846 5848 5849 5851 5853 5854 5856 5858 5858 5859 5861 5863 5865 5866 5867 5868 5869 5871 5872 5873 5874 5874 5875 5876 5877 5878 5878 5879 5880 5880 5880 5881 5882 5883 5883 5883 5883 5883 5884 5884 5884 5884
5711 5715 5719 5722 5725 5728 5731 5734 5738 5743 5747 5751 5754 5759 5764 5768 5772 5775 5778 5780 5783 5786 5789 5791 5794 5796 5798 5801 5803 5806 5808 5810 5813 5815 5818 5820 5823 5825 5828 5830 5832 5835 5837 5839 5841 5843 5844 5846 5848 5850 5852 5853 5855 5856 5856 5857 5859 5862 5864 5864 5865 5866 5868 5869 5870 5872 5872 5873 5874 5875 5876 5877 5877 5878 5879 5879 5879 5880 5881 5882 5882 5882 5883 5883 5883 5883 5883 5883
5708 5712 5715 5719 5722 5726 5729 5732 5736 5740 5744 5748 5752 5756 5762 5766 5769 5773 5775 5778 5781 5784 5787 5790 5792 5794 5797 5799 5802 5804 5806 5809 5811 5813 5816 5818 5821 5823 5826 5828 5830 5833 5835 5837 5839 5841 5842 5844 5846 5848 5850 5851 5853 5854 5854 5856 5858 5860 5862 5862 5863 5865 5866 5868 5869 5870 5871 5872 5873 5874 5875 5876 5877 5877 5878 5878 5878 5878 5879 5880 5881 5882 5882 5882 5883 5883 5883 5883
5704 5708 5712 5716 5720 5723 5727 5730 5733 5738 5742 5746 5749 5754 5759 5763 5767 5770 5773 5776 5779 5782 5785 5788 5790 5792 5795 5798 5800 5802 5804 5806 5809 5811 5814 5816 5819 5821 5824 5826 5829 5831 5833 5835 5836 5838 5840 5842 5844 5845 5847 5849 5850 5851 5852 5854 5856 5858 5859 5859 5861 5863 5865 5866 5867 5869 5870 5871 5872 5873 5874 5875 5875 5876 5877 5877 5877 5877 5878 5879 5880 5881 5881 5881 5882 5882 5882 5882
5701 5705 5709 5713 5717 5721 5724 5727 5731 5735 5739 5743 5747 5751 5756 5760 5764 5767 5770 5773 5776 5780 5783 5785 5788 5790 5793 5796 5798 5800 5802 5805 5807 5810 5812 5814 5817 5819 5822 5824 5826 5828 5830 5832 5834 5836 5838 5840 5841 5843 5845 5847 5848 5849 5850 5852 5854 5856 5857 5858 5860 5862 5863 5865 5866 5867 5868 5869 5870 5871 5873 5874 5874 5875 5876 5876 5876 5876 5877 5877 5878 5879 5880 5880 5881 5881 5881 5881
5697 5701 5705 5710 5714 5718 5722 5725 5729 5733 5736 5740 5744 5749 5753 5757 5761 5764 5768 5771 5774 5777 5780 5783 5786 5788 5791 5793 5796 5798 5801 5803 5806 5808 5810 5813 5815 5817 5820 5822 5824 5826 5827 5829 5831 5833 5835 5837 5839 5841 5843 5844 5845 5847 5849 5851 5852 5853 5855 5857 5859 5860 5862 5863 5864 5866 5867 5868 5869 5870 5872 5872 5873 5874 5874 5874 5875 5875 5876 5876 5877 5878 5879 5879 5879 5880 5880 5880
5694 5698 5702 5706 5711 5715 5719 5722 5726 5730 5734 5737 5741 5746 5750 5754 5758 5762 5765 5768 5772 5775 5778 5781 5783 5786 5789 5791 5794 5796 5799 5801 5804 5806 5808 5811 5813 5815 5817 5819 5821 5823 5825 5827 5829 5831 5833 5835 5836 5839 5841 5842 5843 5845 5846 5848 5849 5851 5853 5855 5857 5858 5860 5861 5862 5864 5865 5866 5867 5869 5870 5870 5871 5872 5873 5873 5873 5874 5875 5875 5876 5876 5877 5878 5878 5879 5879 5879
5691 5695 5699 5703 5707 5712 5716 5719 5723 5727 5731 5735 5739 5743 5747 5751 5755 5758 5762 5765 5769 5772 5775 5778 5781 5783 5786 5789 5792 5794 5797 5799 5802 5804 5806 5809 5811 5813 5815 5817 5819 5821 5823 5825 5826 5828 5830 5832 5834 5836 5838 5839 5841 5842 5844 5846 5847 5849 5852 5853 5855 5856 5858 5859 5860 5862 5863 5864 5865 5867 5869 5869 5870 5871 5871 5871 5872 5872 5873 5874 5874 5875 5876 5876 5877 5877 5878 5878
5688 5692 5696 5700 5704 5708 5713 5716 5720 5724 5728 5732 5736 5740 5744 5748 5752 5755 5759 5762 5766 5769 5772 5775 5778 5781 5784 5787 5790 5792 5795 5797 5799 5802 5804 5806 5808 5811 5813 5815 5817 5818 5820 5822 5824 5826 5828 5830 5832 5834 5836 5837 5838 5840 5842 5844 5846 5848 5849 5851 5853 5854 5856 5857 5859 5860 5861 5862 5863 5865 5867 5867 5868 5869 5869 5870 5870 5871 5872 5872 5873 5873 5874 5875 5875 5876 5876 5876
5685 5689 5693 5697 5701 5705 5709 5713 5717 5721 5725 5729 5733 5737 5741 5745 5748 5752 5755 5759 5762 5766 5769 5772 5775 5778 5781 5784 5788 5790 5792 5795 5797 5799 5802 5804 5806 5808 5811 5813 5814 5816 5818 5820 5822 5824 5826 5827 5829 5831 5833 5834 5836 5838 5840 5842 5844 5846 5847 5849 5851 5852 5854 5856 5857 5858 5859 5860 5861 5863 5865 5866 5866 5867 5868 5868 5869 5869 5870 5871 5871 5872 5873 5873 5874 5874 5874 5874
5682 5686 5690 5694 5698 5701 5705 5710 5714 5717 5721 5726 5730 5734 5738 5741 5745 5749 5752 5755 5759 5763 5766 5769 5772 5775 5779 5783 5786 5788 5790 5792 5794 5797 5799 5801 5804 5806 5808 5810 5812 5814 5816 5818 5819 5821 5823 5825 5827 5829 5831 5833 5835 5837 5839 5840 5842 5843 5845 5847 5849 5850 5852 5853 5855 5856 5857 5858 5859 5861 5863 5864 5864 5865 5866 5866 5867 5868 5869 5869 5870 5870 5871 5871 5872 5873 5873 5873
5679 5683 5687 5691 5694 5698 5702 5706 5710 5714 5718 5722 5726 5730 5734 5738 5741 5745 5749 5752 5756 5760 5763 5767 5770 5773 5777 5781 5783 5785 5787 5790 5792 5794 5797 5799 5801 5803 5806 5808 5810 5812 5814 5815 5817 5819 5821 5823 5825 5827 5829 5831 5833 5835 5837 5838 5839 5841 5843 5845 5846 5848 5850 5851 5853 5854 5855 5856 5857 5859 5861 5862 5862 5863 5864 5865 5866 5867 5868 5868 5868 5869 5869 5870 5870 5871 5871 5871
5676 5679 5684 5688 5692 5695 5699 5702 5707 5711 5714 5719 5723 5727 5730 5734 5738 5742 5746 5750 5753 5757 5761 5765 5768 5770 5773 5777 5780 5782 5785 5787 5790 5792 5794 5796 5799 5801 5803 5805 5807 5809 5811 5813 5815 5817 5819 5821 5823 5825 5827 5829 5830 5832 5833 5835 5837 5839 5841 5843 5844 5846 5847 5849 5850 5851 5852 5853 5855 5856 5858 5860 5861 5861 5862 5863 5864 5865 5866 5866 5866 5867 5867 5868 5868 5869 5869 5869
5673 5677 5681 5685 5689 5693 5696 5699 5703 5707 5711 5716 5719 5723 5727 5732 5736 5740 5744 5747 5750 5753 5757 5761 5764 5767 5770 5774 5776 5779 5782 5784 5787 5789 5791 5794 5796 5798 5800 5803 5805 5807 5809 5811 5813 5815 5817 5819 5821 5823 5824 5826 5827 5829 5831 5833 5835 5837 5839 5840 5841 5843 5844 5846 5847 5848 5849 5851 5852 5853 5855 5858 5859 5859 5859 5860 5862 5863 5864 5864 5865 5865 5865 5866 5866 5866 5866 5867
5670 5674 5678 5682 5686 5689 5693 5697 5700 5704 5708 5712 5716 5720 5725 5729 5733 5737 5740 5743 5747 5750 5753 5757 5761 5763 5766 5770 5773 5776 5779 5782 5784 5786 5789 5791 5794 5796 5798 5800 5802 5804 5806 5808 5810 5812 5814 5816 5818 5820 5822 5823 5825 5827 5829 5831 5833 5834 5836 5838 5839 5840 5841 5843 5844 5846 5847 5848 5850 5850 5852 5855 5857 5857 5857 5858 5859 5861 5861 5862 5863 5863 5864 5864 5864 5864 5864 5864
5667 5671 5675 5679 5682 5686 5690 5694 5698 5702 5705 5709 5713 5717 5721 5725 5728 5732 5735 5738 5742 5745 5749 5753 5757 5760 5762 5766 5770 5774 5776 5779 5781 5784 5786 5789 5791 5793 5795 5797 5799 5801 5804 5806 5808 5810 5812 5813 5815 5817 5819 5821 5822 5824 5826 5828 5830 5831 5833 5835 5836 5837 5838 5839 5841 5843 5844 5845 5846 5847 5849 5853 5854 5854 5855 5855 5857 5859 5858 5860 5861 5861 5862 5862 5862 5862 5862 5862
5663 5667 5671 5675 5679 5683 5687 5691 5695 5699 5702 5706 5709 5713 5717 5720 5724 5727 5730 5733 5737 5741 5745 5748 5752 5756 5758 5762 5767 5770 5772 5775 5778 5780 5783 5785 5787 5790 5792 5794 5796 5798 5801 5803 5805 5807 5809 5811 5812 5814 5816 5818 5820 5822 5824 5825 5827 5829 5831 5832 5833 5834 5835 5836 5838 5840 5841 5842 5843 5844 5845 5849 5851 5851 5853 5854 5854 5856 5856 5857 5859 5859 5859 5859 5859 5860 5860 5860
5661 5664 5668 5672 5675 5679 5683 5688 5691 5694 5698 5702 5705 5709 5713 5716 5719 5723 5726 5728 5732 5736 5739 5743 5748 5751 5754 5759 5763 5766 5769 5772 5774 5777 5779 5782 5784 5786 5789 5790 5793 5795 5798 5800 5802 5804 5806 5808 5810 5811 5813 5815 5817 5819 5821 5822 5824 5826 5828 5829 5830 5831 5832 5833 5835 5837 5838 5838 5840 5842 5841 5845 5848 5848 5850 5852 5852 5854 5854 5855 5856 5856 5856 5856 5857 5857 5857 5857
5658 5661 5665 5668 5672 5676 5680 5684 5687 5690 5695 5698 5702 5706 5709 5712 5715 5718 5721 5723 5726 5730 5735 5740 5744 5747 5751 5755 5758 5762 5765 5767 5770 5773 5776 5778 5780 5783 5785 5787 5790 5792 5794 5796 5798 5801 5803 5805 5807 5808 5811 5813 5815 5816 5818 5819 5821 5823 5825 5826 5827 5828 5829 5830 5832 5833 5834 5835 5837 5839 5837 5839 5844 5846 5849 5850 5850 5851 5851 5852 5854 5854 5853 5853 5854 5854 5854 5854
5655 5658 5661 5665 5668 5672 5676 5680 5683 5688 5692 5695 5698 5702 5705 5708 5710 5713 5716 5717 5720 5727 5732 5736 5740 5745 5748 5750 5754 5758 5760 5764 5767 5769 5772 5774 5777 5779 5781 5784 5787 5788 5790 5793 5795 5798 5800 5802 5804 5806 5808 5810 5812 5813 5814 5816 5817 5819 5821 5823 5823 5825 5826 5826 5828 5829 5831 5832 5834 5836 5835 5834 5839 5845 5847 5847 5846 5848 5849 5850 5851 5851 5850 5851 5851 5851 5850 5850
5652 5655 5658 5662 5665 5669 5673 5676 5680 5685 5688 5691 5694 5697 5699 5702 5705 5708 5711 5711 5716 5724 5728 5732 5737 5741 5744 5745 5749 5754 5757 5761 5763 5765 5768 5771 5773 5775 5778 5781 5783 5785 5787 5789 5792 5795 5797 5798 5801 5803 5804 5806 5808 5809 5810 5812 5814 5815 5818 5819 5820 5822 5822 5823 5825 5826 5827 5829 5830 5833 5833 5830 5832 5841 5845 5843 5843 5844 5846 5848 5848 5848 5848 5848 5848 5848 5847 5847
5647 5651 5655 5658 5662 5666 5669 5673 5677 5680 5683 5686 5689 5691 5694 5697 5699 5703 5704 5706 5713 5720 5724 5729 5734 5737 5739 5741 5745 5750 5754 5756 5758 5761 5764 5766 5768 5771 5774 5777 5779 5780 5782 5785 5788 5791 5793 5794 5796 5798 5800 5802 5804 5805 5807 5808 5810 5812 5814 5815 5817 5818 5819 5820 5821 5822 5824 5825 5827 5830 5831 5828 5826 5835 5842 5841 5840 5841 5843 5845 5845 5846 5846 5846 5845 5844 5844 5844
5643 5646 5650 5654 5659 5662 5666 5669 5672 5675 5678 5681 5683 5686 5688 5691 5694 5695 5696 5703 5712 5717 5721 5725 5729 5732 5735 5738 5742 5745 5749 5751 5753 5756 5759 5761 5764 5767 5769 5772 5775 5776 5778 5781 5784 5786 5789 5791 5793 5795 5797 5799 5801 5802 5803 5805 5806 5808 5810 5811 5813 5814 5815 5816 5817 5819 5820 5821 5824 5827 5829 5828 5822 5825 5835 5839 5838 5839 5840 5841 5842 5843 5843 5842 5842 5841 5841 5841
5639 5642 5646 5651 5655 5658 5661 5664 5667 5670 5672 5675 5677 5680 5681 5684 5687 5686 5693 5705 5711 5713 5717 5722 5724 5728 5731 5735 5738 5741 5745 5747 5748 5751 5754 5756 5759 5762 5764 5767 5770 5772 5774 5777 5779 5782 5785 5787 5789 5791 5793 5795 5797 5798 5799 5801 5802 5804 5805 5807 5808 5809 5811 5813 5814 5816 5816 5818 5821 5822 5825 5826 5819 5819 5827 5833 5836 5837 5836 5837 5839 5839 5839 5839 5838 5838 5837 5837
5635 5638 5642 5647 5650 5653 5656 5658 5661 5665 5667 5669 5672 5673 5676 5678 5678 5682 5695 5706 5706 5706 5714 5718 5721 5725 5728 5730 5733 5736 5739 5741 5744 5747 5750 5752 5754 5757 5760 5763 5766 5768 5770 5774 5776 5779 5781 5783 5785 5787 5789 5791 5793 5794 5795 5796 5797 5799 5800 5802 5803 5804 5806 5809 5811 5812 5812 5815 5816 5816 5819 5821 5819 5819 5821 5824 5830 5834 5834 5834 5835 5835 5835 5835 5835 5835 5833 5832
5632 5635 5638 5642 5646 5649 5651 5654 5657 5659 5661 5664 5665 5667 5670 5670 5673 5684 5697 5701 5698 5701 5708 5713 5716 5719 5721 5723 5727 5730 5733 5735 5738 5742 5744 5746 5749 5752 5755 5758 5762 5764 5767 5770 5771 5773 5776 5778 5780 5782 5784 5786 5788 5790 5791 5792 5793 5794 5797 5798 5799 5801 5802 5804 5807 5807 5808 5811 5811 5811 5813 5815 5817 5819 5818 5818 5823 5828 5830 5831 5831 5831 5831 5831 5831 5831 5829 5828
5627 5631 5634 5638 5642 5644 5646 5649 5652 5654 5656 5657 5659 5661 5662 5664 5675 5687 5692 5692 5692 5696 5702 5707 5710 5711 5713 5717 5721 5724 5727 5729 5733 5736 5738 5740 5743 5746 5750 5753 5757 5759 5762 5764 5765 5768 5770 5772 5775 5778 5779 5782 5784 5785 5786 5787 5788 5790 5792 5792 5794 5797 5798 5800 5801 5802 5804 5807 5806 5806 5808 5809 5813 5816 5816 5816 5818 5821 5824 5825 5825 5826 5827 5826 5826 5826 5825 5825
5622 5626 5630 5634 5638 5640 5643 5645 5647 5649 5650 5651 5653 5654 5656 5665 5677 5682 5683 5684 5687 5691 5698 5700 5702 5704 5707 5711 5715 5718 5721 5724 5727 5730 5731 5735 5739 5743 5746 5749 5752 5754 5757 5759 5762 5764 5765 5767 5771 5773 5774 5778 5779 5780 5781 5781 5783 5784 5786 5787 5791 5794 5795 5794 5794 5796 5800 5800 5801 5802 5803 5806 5809 5811 5812 5813 5814 5815 5817 5818 5819 5820 5821 5821 5821 5820 5819 5820
5618 5621 5625 5629 5633 5636 5639 5641 5643 5644 5644 5646 5646 5648 5657 5667 5673 5675 5677 5679 5683 5688 5690 5691 5694 5698 5701 5705 5709 5712 5716 5719 5721 5723 5726 5730 5734 5738 5741 5744 5747 5749 5752 5755 5757 5759 5760 5762 5766 5767 5770 5772 5773 5774 5775 5776 5778 5779 5781 5785 5788 5789 5789 5788 5789 5791 5793 5793 5796 5799 5800 5803 5805 5806 5808 5809 5810 5810 5810 5811 5812 5812 5813 5814 5814 5814 5813 5814
5613 5617 5621 5624 5628 5632 5635 5637 5639 5639 5639 5639 5641 5648 5658 5663 5665 5669 5673 5675 5679 5683 5683 5684 5689 5694 5696 5700 5704 5708 5711 5713 5714 5717 5721 5725 5727 5732 5737 5740 5742 5744 5747 5750 5750 5752 5754 5755 5758 5762 5764 5766 5767 5767 5769 5771 5773 5774 5778 5782 5783 5782 5782 5782 5782 5785 5786 5786 5790 5795 5797 5800 5802 5802 5804 5805 5804 5805 5806 5806 5806 5806 5804 5804 5806 5807 5808 5808
5608 5612 5616 5619 5623 5627 5630 5633 5635 5636 5635 5634 5638 5646 5653 5656 5659 5664 5667 5670 5673 5676 5677 5679 5685 5689 5692 5696 5700 5703 5706 5707 5709 5712 5716 5718 5722 5729 5733 5735 5737 5740 5742 5744 5743 5745 5747 5748 5752 5755 5757 5759 5760 5760 5762 5766 5768 5770 5773 5776 5775 5775 5775 5776 5777 5779 5781 5781 5784 5790 5792 5794 5799 5801 5800 5800 5800 5800 5800 5800 5800 5800 5799 5797 5798 5799 5801 5802
5602 5607 5610 5614 5617 5621 5625 5628 5629 5631 5631 5630 5634 5641 5646 5650 5654 5657 5660 5664 5666 5669 5672 5674 5679 5684 5687 5691 5695 5697 5700 5702 5705 5708 5711 5713 5718 5724 5729 5730 5732 5735 5736 5737 5737 5739 5741 5742 5745 5748 5750 5752 5753 5755 5758 5762 5763 5765 5767 5768 5769 5770 5770 5770 5771 5773 5775 5776 5778 5783 5785 5788 5796 5799 5797 5796 5796 5795 5794 5793 5794 5794 5793 5792 5792 5793 5793 5793
5597 5601 5604 5608 5612 5615 5619 5622 5623 5624 5625 5627 5631 5637 5642 5645 5648 5650 5654 5658 5660 5663 5666 5669 5673 5677 5681 5686 5689 5691 5694 5697 5699 5702 5705 5708 5713 5718 5722 5723 5725 5729 5730 5729 5731 5733 5733 5735 5738 5741 5743 5744 5747 5752 5755 5756 5757 5759 5761 5761 5763 5765 5764 5765 5765 5766 5769 5770 5772 5775 5777 5784 5793 5794 5793 5792 5792 5791 5789 5788 5788 5786 5785 5786 5787 5787 5786 5786
5591 5595 5598 5602 5606 5609 5612 5614 5615 5617 5620 5623 5628 5633 5638 5640 5643 5646 5649 5652 5655 5658 5661 5665 5668 5672 5676 5680 5683 5687 5690 5691 5694 5697 5700 5704 5708 5712 5715 5717 5719 5722 5722 5722 5724 5726 5727 5729 5732 5734 5736 5739 5744 5746 5747 5748 5749 5752 5753 5755 5758 5758 5757 5757 5758 5760 5761 5763 5766 5767 5768 5779 5789 5789 5789 5788 5786 5787 5785 5783 5782 5780 5779 5779 5779 5780 5779 5778
5585 5589 5593 5596 5599 5602 5604 5605 5608 5611 5614 5619 5624 5629 5633 5636 5639 5641 5643 5647 5650 5652 5655 5659 5663 5666 5669 5674 5678 5681 5684 5685 5689 5692 5695 5699 5704 5706 5708 5711 5712 5714 5715 5716 5718 5722 5722 5722 5724 5727 5730 5735 5737 5736 5737 5740 5742 5744 5746 5748 5750 5749 5749 5750 5750 5753 5754 5754 5760 5760 5760 5774 5784 5783 5784 5783 5782 5782 5779 5776 5777 5775 5774 5774 5772 5773 5772 5771
5578 5582 5585 5588 5591 5594 5595 5597 5601 5606 5611 5616 5620 5623 5626 5630 5633 5636 5638 5641 5645 5648 5651 5654 5657 5660 5663 5667 5671 5674 5677 5680 5682 5686 5690 5694 5697 5699 5701 5703 5705 5706 5708 5710 5712 5714 5714 5714 5717 5720 5723 5726 5727 5727 5729 5732 5733 5735 5738 5741 5742 5741 5743 5744 5744 5747 5746 5747 5754 5753 5752 5768 5778 5777 5779 5778 5776 5776 5772 5770 5771 5769 5768 5768 5766 5767 5767 5766
5570 5574 5577 5581 5583 5585 5588 5593 5598 5603 5608 5611 5613 5616 5620 5624 5628 5631 5634 5637 5640 5643 5646 5649 5652 5655 5658 5661 5665 5668 5671 5674 5676 5680 5683 5686 5689 5692 5694 5696 5698 5699 5701 5704 5706 5707 5707 5708 5711 5714 5715 5717 5718 5719 5722 5725 5726 5728 5732 5735 5736 5737 5738 5737 5738 5740 5737 5742 5750 5744 5744 5763 5773 5770 5772 5771 5768 5769 5767 5764 5765 5764 5762 5762 5761 5761 5761 5761
5563 5567 5570 5573 5576 5578 5583 5589 5594 5598 5601 5603 5607 5611 5615 5619 5623 5627 5630 5632 5634 5637 5640 5643 5646 5651 5654 5656 5660 5663 5665 5668 5672 5674 5677 5680 5683 5686 5687 5689 5692 5693 5695 5698 5700 5701 5701 5702 5705 5707 5707 5710 5712 5715 5719 5722 5722 5723 5727 5730 5731 5732 5732 5732 5733 5732 5732 5739 5743 5736 5739 5756 5764 5761 5762 5762 5761 5763 5762 5758 5758 5759 5758 5757 5757 5756 5755 5755
5557 5560 5563 5567 5569 5573 5578 5584 5587 5590 5594 5597 5601 5606 5609 5613 5618 5622 5624 5626 5628 5632 5634 5637 5641 5644 5646 5649 5654 5658 5660 5662 5665 5667 5672 5675 5677 5679 5681 5683 5685 5687 5689 5692 5693 5694 5694 5696 5698 5700 5702 5705 5708 5710 5714 5715 5714 5715 5720 5722 5722 5724 5725 5726 5725 5724 5729 5734 5732 5730 5737 5746 5753 5756 5754 5753 5755 5758 5755 5751 5752 5752 5752 5752 5752 5751 5751 5750
5550 5554 5559 5561 5563 5567 5572 5577 5581 5585 5589 5591 5595 5599 5603 5608 5612 5614 5617 5620 5624 5627 5629 5631 5634 5636 5639 5644 5647 5651 5654 5656 5658 5662 5666 5668 5670 5672 5674 5676 5678 5680 5682 5685 5686 5687 5688 5690 5692 5695 5698 5700 5701 5702 5705 5706 5705 5708 5712 5713 5714 5717 5718 5718 5718 5722 5728 5725 5721 5730 5735 5733 5741 5750 5747 5744 5749 5750 5747 5746 5747 5746 5745 5745 5745 5745 5745 5743
5545 5549 5553 5555 5556 5560 5566 5571 5576 5579 5581 5582 5586 5592 5595 5599 5603 5607 5611 5615 5618 5621 5623 5625 5628 5631 5636 5639 5641 5645 5648 5650 5653 5657 5660 5661 5663 5666 5667 5670 5672 5673 5676 5678 5678 5679 5682 5684 5687 5689 5691 5694 5694 5695 5698 5699 5698 5701 5704 5706 5708 5710 5711 5712 5714 5719 5721 5714 5716 5727 5727 5722 5732 5741 5737 5737 5743 5743 5741 5742 5742 5739 5738 5737 5737 5737 5736 5734
5540 5543 5546 5547 5550 5555 5560 5564 5567 5568 5570 5573 5578 5583 5587 5592 5598 5603 5607 5609 5611 5614 5617 5620 5625 5629 5631 5633 5635 5638 5641 5643 5647 5652 5655 5657 5658 5660 5662 5664 5666 5668 5670 5671 5671 5672 5675 5679 5682 5682 5685 5688 5689 5689 5692 5692 5691 5693 5696 5699 5702 5704 5706 5707 5709 5712 5710 5706 5712 5720 5716 5715 5725 5731 5731 5734 5735 5733 5733 5734 5733 5733 5733 5731 5728 5727 5727 5726
5534 5537 5539 5540 5544 5549 5553 5555 5558 5561 5564 5566 5570 5576 5582 5587 5593 5598 5600 5601 5604 5609 5611 5616 5623 5625 5626 5627 5628 5631 5635 5639 5643 5647 5649 5651 5652 5654 5656 5658 5661 5663 5664 5665 5665 5667 5669 5672 5675 5677 5679 5681 5684 5684 5685 5686 5685 5686 5688 5691 5696 5699 5699 5699 5700 5702 5702 5701 5707 5710 5706 5710 5720 5723 5724 5728 5726 5722 5724 5726 5726 5727 5726 5722 5719 5717 5717 5718
5527 5529 5531 5533 5538 5542 5544 5547 5551 5553 5556 5559 5566 5573 5578 5583 5589 5591 5590 5592 5597 5601 5605 5611 5617 5617 5617 5619 5621 5625 5631 5634 5636 5639 5642 5643 5645 5648 5650 5652 5655 5656 5658 5660 5660 5662 5664 5665 5669 5672 5671 5674 5679 5679 5678 5680 5679 5677 5680 5686 5691 5691 5691 5691 5693 5695 5696 5697 5699 5698 5698 5705 5714 5714 5714 5718 5718 5715 5716 5719 5720 5721 5718 5713 5710 5709 5709 5710
5520 5522 5523 5526 5530 5533 5535 5539 5542 5544 5549 5556 5564 5570 5573 5577 5581 5580 5580 5584 5589 5593 5599 5603 5605 5605 5607 5610 5616 5622 5626 5626 5629 5632 5634 5636 5639 5641 5642 5645 5648 5650 5651 5653 5654 5657 5659 5659 5662 5665 5663 5667 5673 5672 5671 5673 5669 5668 5677 5686 5687 5684 5683 5684 5685 5688 5690 5688 5687 5688 5691 5699 5704 5703 5703 5708 5710 5709 5709 5711 5714 5714 5710 5703 5701 5702 5704 5704